Miscellaneous Local Product
Issued by NWS North Platte, NE

Home | Current Version | Previous Version | Text Only | Print | Product List | Glossary On
Versions: 1 2 3 4 5 6 7 8 9 10 11 12 13 14 15 16 17 18 19 20 21 22 23 24 25 26 27 28 29 30 31 32 33 34 35 36 37 38 39 40 41 42 43 44 45 46 47 48 49 50
000
AXUS43 KLBF 221410
MISLBF


WESTERN AND NORTH CENTRAL NEBRASKA HOURLY WEATHER ROUNDUP
NATIONAL WEATHER SERVICE NORTH PLATTE NE
900 AM CDT SAT JUL 22 2017

NOTE: "FAIR" INDICATES FEW OR NO CLOUDS BELOW 12,000 FEET WITH NO
SIGNIFICANT WEATHER AND/OR OBSTRUCTIONS TO VISIBILITY.

NOTE: STATIONS NOT REPORTING VARIABLES SUCH AS SKY/WEATHER OR
PRESSURE ARE PROVIDED BY RAWS AND APRS NETWORKS AND ARE NOT UNDER
NATIONAL WEATHER SERVICE QUALITY CONTROL.

...OBSERVATIONS IN AND NEAR THE EASTERN PANHANDLE OF NEBRASKA...

CITY           SKY/WX    TMP DP  RH WIND       PRES   REMARKS
PINE RIDGE     MOSUNNY   72  60  66 CALM      30.04S
GORDON         FAIR      72  63  73 W3        30.05R
CHADRON        MOSUNNY   74  52  46 S3        30.04R
ALLIANCE       CLOUDY    74  56  53 N6        30.08R
SIDNEY         PTSUNNY   72  56  57 N3        30.13R
CRESCENT LAKE    N/A     72  57  59 N5          N/A
$$

...OBSERVATIONS IN NORTHERN NEBRASKA AND FAR SOUTHERN SOUTH DAKOTA...

CITY           SKY/WX    TMP DP  RH WIND       PRES   REMARKS
WINNER         FAIR      76  68  76 N9        29.96R
VALENTINE      MOSUNNY   82  60  47 W6        29.98R
THEDFORD       CLOUDY    77  64  64 CALM      30.01S
AINSWORTH      CLOUDY    73  66  79 W3        29.99R
O`NEILL        PTSUNNY   77  76  96 CALM      29.94R FOG
ORD            CLOUDY    78  71  79 NE6       29.93R
BROKEN BOW     CLOUDY    77  67  71 N8        29.97R
VALENTINE NWR    N/A     72  62  72 W5          N/A
HALSEY           N/A     75  63  66 NW3         N/A
BUTTE            N/A     71  69  93 SW3         N/A
CHAMBERS         N/A     79  75  86 CALM        N/A
EWING            N/A     76  75  97 NW3         N/A
$$

...OBSERVATIONS IN SOUTHWEST NEBRASKA AND FAR NORTHEAST COLORADO...

CITY           SKY/WX    TMP DP  RH WIND       PRES   REMARKS
HOLYOKE        FAIR      73  57  56 N5        30.09R
IMPERIAL       CLOUDY    73  59  61 NW8       30.05R
OGALLALA       CLOUDY    73  60  62 SW5       30.05R
NORTH PLATTE   LGT RAIN  76  66  71 CALM      29.99R
MCCOOK         MOSUNNY   84  59  42 N12       29.97R
LEXINGTON      CLOUDY    80  68  66 NE6       29.95R
STAPLETON        N/A     78  66  66 NE3         N/A
GOTHENBURG       N/A     74  57  55 NW3         N/A
CALLAWAY         N/A     76  65  68 NE8         N/A
$$

...OBSERVATIONS IN CENTRAL LINCOLN COUNTY AREA...

CITY           SKY/WX    TMP DP  RH WIND       PRES   REMARKS
N.P. AIRPORT   LGT RAIN  76  66  71 CALM      29.99R
N.P. DOWNTOWN    N/A     79  62  56 CALM        N/A
N.P. SOUTHEAST   N/A     77  60  56 CALM        N/A
N.P. HILLCREST   N/A     79  63  57 NE12        N/A
$$

...SOME OBSERVATIONS FROM AROUND THE REGION...

CITY           SKY/WX    TMP DP  RH WIND       PRES   REMARKS
DENVER         PTSUNNY   64  59  83 S8        30.21R
LIMON          CLOUDY    65  60  84 NW3       30.21R
ASPEN          CLOUDY    57  51  80 CALM      30.40R
LARAMIE        CLOUDY    58  51  78 S3        30.33R
CASPER         CLOUDY    68  48  48 W7        30.21R
CHEYENNE       SUNNY     70  51  51 NW10      30.22R
SCOTTSBLUFF    SUNNY     72  56  57 NW8       30.08R
GRAND ISLAND   CLOUDY    77  73  87 N10       29.92R
OMAHA          PTSUNNY   83  75  77 CALM      29.81R HX  90
SIOUX FALLS    MOSUNNY   77  71  82 N5        29.90R
PIERRE         PTSUNNY   73  61  65 N13       29.93R
RAPID CITY     CLOUDY    72  46  39 N12       30.05F
BISMARCK       SUNNY     69  59  70 W8        29.97R
KANSAS CITY    MOSUNNY   84  73  69 SW14      29.84R HX  90
HILL CITY      SUNNY     81  62  52 W9        29.93R
WICHITA        MOSUNNY   85  70  60 S13       29.88S
DODGE CITY     SUNNY     79  59  50 NW7       29.96R
OKLAHOMA CITY  MOSUNNY   84  68  58 SW16      29.94R
DALLAS         MOSUNNY   86  74  67 S9        29.95R HX  94
AMARILLO       MOSUNNY   77  61  57 SW9       30.08R
$$




USA.gov is the U.S. government's official web portal to all federal, state and local government web resources and services.